Location: ??
(35.4627°N, 139.3695°E)
Time: 07:09:23
(UTC+00:00)

BREEZE-M DEB (TANK) - Pass Details

Date: 25 November 2020
Orbit: 273 x 14177 km, 49.5° (Epoch: 17 January)

Event Time Altitude Azimuth Distance (km) Brightness Sun altitude
Exits shadow 20:31:39 10° 312° (NW) 3,588 6.4 -11.6°
Maximum altitude 20:38:02 34° 16° (NNE) 1,019 4.1 -10.4°
Drops below altitude 10° 20:40:40 10° 86° (E) 1,444 6.2 -9.9°
Sets 20:42:06 0° 98° (E) 2,068 7.8 -9.6°
